QPF
0.00 0.00 0.00 0.00 0.00 0.00 0.00 0.00 0.00 0.00 0.00 0.00 0.00 0.00 0.00 0.00 0.00 0.00 0.00 0.00 0.00 0.00 0.00 0.00 0.00 0.00 0.00 0.00 0.00 0.07 0.37 0.15 0.14 0.10 0.14 0.00 0.00 0.00 0.03 0.00 0.01 0.01 0.00 0.00 0.00
0.00 0.00 0.00 0.00 0.00 0.00 0.00 0.00 0.00 0.00 0.00 0.00 0.00 0.00 0.00 0.00 0.00 0.00 0.00 0.00 0.00 0.00 0.00 0.00 0.00 0.00 0.00 0.00 0.00 0.01 0.31 0.46 0.12 0.02 0.00 0.00 0.00 0.00 0.02 0.00 0.01 0.00 0.00 0.00 0.00
0.00 0.00 0.00 0.00 0.00 0.00 0.00 0.00 0.00 0.00 0.00 0.00 0.00 0.00 0.00 0.00 0.00 0.00 0.00 0.00 0.00 0.00 0.00 0.00 0.00 0.00 0.00 0.00 0.00 0.01 0.54 0.38 0.05 0.03 0.01 0.00 0.02 0.00 0.01 0.07 0.04 0.00 0.00 0.00 0.00
0.00 0.00 0.00 0.00 0.00 0.00 0.00 0.00 0.00 0.00 0.00 0.00 0.00 0.00 0.00 0.00 0.00 0.00 0.00 0.00 0.00 0.00 0.00 0.00 0.00 0.00 0.00 0.00 0.00 0.01 0.02 0.16 0.01 0.01 0.03 0.02 0.04 0.01 0.07 0.21 0.01 0.00 0.00 0.00 0.00
0.00 0.00 0.00 0.00 0.00 0.00 0.00 0.00 0.00 0.00 0.00 0.00 0.00 0.00 0.00 0.00 0.00 0.00 0.00 0.00 0.00 0.00 0.00 0.00 0.00 0.00 0.00 0.00 0.00 0.00 0.01 0.07 0.00 0.00 0.15 0.08 0.06 0.06 0.09 0.05 0.00 0.00 0.00 0.00 0.00
0.00 0.00 0.00 0.00 0.00 0.00 0.00 0.00 0.00 0.00 0.00 0.00 0.00 0.00 0.00 0.00 0.00 0.00 0.00 0.00 0.00 0.00 0.00 0.00 0.00 0.00 0.00 0.00 0.00 0.00 0.01 0.17 0.01 0.00 0.02 0.02 0.00 0.06 0.08 0.00 0.00 0.00 0.00 0.00 0.00
0.00 0.00 0.00 0.00 0.00 0.00 0.00 0.00 0.00 0.00 0.00 0.00 0.00 0.00 0.00 0.00 0.00 0.00 0.00 0.00 0.00 0.00 0.00 0.00 0.00 0.00 0.00 0.00 0.00 0.00 0.01 0.07 0.01 0.00 0.00 0.00 0.00 0.05 0.06 0.01 0.07 0.00 0.00 0.00 0.00
0.00 0.00 0.00 0.00 0.00 0.00 0.00 0.00 0.00 0.00 0.00 0.00 0.00 0.00 0.00 0.00 0.00 0.00 0.00 0.00 0.00 0.00 0.00 0.00 0.00 0.00 0.00 0.00 0.00 0.00 0.00 0.13 0.06 0.00 0.01 0.00 0.02 0.04 0.02 0.12 0.43 0.00 0.00 0.00 0.00
0.00 0.00 0.00 0.00 0.00 0.00 0.00 0.00 0.00 0.00 0.00 0.00 0.00 0.00 0.00 0.00 0.00 0.00 0.00 0.00 0.00 0.00 0.00 0.00 0.00 0.00 0.00 0.00 0.00 0.00 0.00 0.01 0.03 0.00 0.01 0.01 0.06 0.01 0.01 0.13 0.55 0.01 0.00 0.00 0.00
0.00 0.00 0.00 0.00 0.00 0.00 0.00 0.00 0.00 0.00 0.00 0.00 0.00 0.00 0.00 0.00 0.00 0.00 0.00 0.00 0.00 0.00 0.00 0.00 0.00 0.00 0.00 0.00 0.00 0.00 0.00 0.00 0.00 0.04 0.01 0.00 0.03 0.04 0.06 0.19 0.20 0.01 0.00 0.00 0.00
0.00 0.00 0.00 0.00 0.00 0.00 0.00 0.00 0.00 0.00 0.00 0.00 0.00 0.00 0.00 0.00 0.00 0.00 0.00 0.00 0.00 0.00 0.00 0.00 0.00 0.00 0.00 0.00 0.00 0.00 0.00 0.01 0.01 0.03 0.02 0.01 0.00 0.01 0.05 0.42 0.16 0.00 0.00 0.00 0.00
0.00 0.00 0.00 0.00 0.00 0.00 0.00 0.00 0.00 0.00 0.00 0.00 0.00 0.00 0.00 0.00 0.00 0.00 0.00 0.00 0.00 0.00 0.00 0.00 0.00 0.00 0.00 0.00 0.00 0.00 0.00 0.02 0.12 0.23 0.11 0.03 0.00 0.01 0.03 0.25 0.16 0.02 0.00 0.00 0.00
0.00 0.00 0.00 0.00 0.00 0.00 0.00 0.00 0.00 0.00 0.00 0.00 0.00 0.00 0.00 0.00 0.00 0.00 0.00 0.00 0.00 0.00 0.00 0.00 0.00 0.00 0.00 0.00 0.00 0.00 0.00 0.00 0.10 0.35 0.37 0.04 0.02 0.02 0.05 0.07 0.23 0.09 0.00 0.00 0.00
0.00 0.00 0.00 0.00 0.00 0.00 0.00 0.00 0.00 0.00 0.00 0.00 0.00 0.00 0.00 0.00 0.00 0.00 0.00 0.00 0.00 0.00 0.00 0.00 0.00 0.00 0.00 0.00 0.00 0.00 0.00 0.00 0.12 0.24 0.21 0.03 0.01 0.01 0.01 0.07 0.49 0.33 0.04 0.00 0.00
0.00 0.00 0.00 0.00 0.00 0.00 0.00 0.00 0.00 0.00 0.00 0.00 0.00 0.00 0.00 0.00 0.00 0.00 0.00 0.00 0.00 0.00 0.00 0.00 0.00 0.00 0.00 0.00 0.00 0.00 0.00 0.00 0.01 0.09 0.01 0.02 0.00 0.01 0.02 0.66 1.38 0.94 0.10 0.02 0.01
0.00 0.00 0.00 0.00 0.00 0.00 0.00 0.00 0.00 0.00 0.00 0.00 0.00 0.00 0.00 0.00 0.00 0.00 0.00 0.00 0.00 0.00 0.00 0.00 0.00 0.00 0.00 0.00 0.00 0.00 0.00 0.00 0.00 0.08 0.05 0.00 0.00 0.03 0.04 0.54 0.87 0.42 0.08 0.04 0.05
0.00 0.00 0.00 0.00 0.00 0.00 0.00 0.00 0.00 0.00 0.00 0.00 0.00 0.00 0.00 0.00 0.00 0.00 0.00 0.00 0.00 0.00 0.00 0.00 0.00 0.00 0.00 0.00 0.00 0.00 0.00 0.00 0.01 0.05 0.02 0.00 0.02 0.01 0.01 0.18 0.92 0.84 0.30 0.17 0.09
0.00 0.00 0.00 0.00 0.00 0.00 0.00 0.00 0.00 0.00 0.00 0.00 0.00 0.00 0.00 0.00 0.00 0.00 0.00 0.00 0.00 0.00 0.00 0.00 0.00 0.00 0.00 0.00 0.00 0.00 0.00 0.00 0.00 0.00 0.00 0.00 0.07 0.03 0.00 0.00 0.10 0.83 0.55 0.21 0.11
0.00 0.00 0.00 0.00 0.00 0.00 0.00 0.03 0.01 0.00 0.00 0.00 0.00 0.00 0.00 0.00 0.00 0.00 0.00 0.00 0.00 0.00 0.00 0.00 0.00 0.00 0.00 0.00 0.00 0.00 0.00 0.00 0.00 0.00 0.00 0.02 0.03 0.01 0.00 0.00 0.00 0.08 0.22 0.33 0.28
0.00 0.00 0.00 0.00 0.00 0.00 0.00 0.01 0.00 0.00 0.00 0.00 0.00 0.00 0.00 0.00 0.00 0.00 0.00 0.00 0.00 0.00 0.00 0.00 0.00 0.00 0.00 0.00 0.00 0.00 0.00 0.00 0.00 0.00 0.00 0.09 0.03 0.02 0.00 0.00 0.00 0.00 0.01 0.12 0.20
0.00 0.00 0.00 0.00 0.00 0.00 0.00 0.00 0.00 0.00 0.00 0.00 0.00 0.00 0.00 0.00 0.00 0.01 0.01 0.00 0.00 0.00 0.00 0.01 0.00 0.00 0.00 0.00 0.00 0.00 0.00 0.00 0.00 0.00 0.00 0.09 0.14 0.07 0.01 0.00 0.00 0.00 0.00 0.00 0.03
0.00 0.00 0.00 0.00 0.00 0.00 0.00 0.00 0.00 0.00 0.00 0.00 0.00 0.01 0.00 0.00 0.00 0.01 0.00 0.00 0.00 0.00 0.00 0.00 0.00 0.00 0.00 0.00 0.00 0.00 0.00 0.00 0.00 0.00 0.00 0.01 0.09 0.12 0.06 0.01 0.00 0.00 0.00 0.00 0.00
0.00 0.00 0.00 0.00 0.00 0.00 0.00 0.00 0.00 0.00 0.00 0.00 0.00 0.00 0.00 0.00 0.00 0.00 0.00 0.00 0.00 0.00 0.00 0.00 0.00 0.00 0.00 0.00 0.00 0.00 0.00 0.00 0.00 0.00 0.00 0.00 0.03 0.08 0.06 0.01 0.00 0.00 0.00 0.00 0.00
0.00 0.00 0.00 0.00 0.00 0.00 0.00 0.00 0.00 0.00 0.00 0.00 0.00 0.00 0.00 0.00 0.00 0.00 0.00 0.00 0.00 0.00 0.00 0.00 0.00 0.00 0.00 0.00 0.00 0.00 0.00 0.00 0.00 0.00 0.00 0.03 0.02 0.01 0.01 0.00 0.00 0.00 0.00 0.00 0.00
0.00 0.00 0.00 0.00 0.00 0.00 0.00 0.00 0.00 0.00 0.00 0.00 0.00 0.00 0.00 0.00 0.00 0.00 0.00 0.00 0.00 0.00 0.00 0.00 0.00 0.00 0.00 0.00 0.00 0.00 0.00 0.00 0.00 0.00 0.00 0.03 0.00 0.00 0.00 0.00 0.00 0.00 0.00 0.00 0.00
0.00 0.00 0.00 0.00 0.00 0.00 0.00 0.00 0.00 0.00 0.00 0.00 0.00 0.00 0.00 0.00 0.00 0.01 0.00 0.00 0.00 0.00 0.00 0.00 0.00 0.00 0.00 0.00 0.00 0.00 0.00 0.00 0.00 0.00 0.00 0.00 0.00 0.00 0.00 0.00 0.00 0.00 0.00 0.00 0.00
0.00 0.00 0.00 0.00 0.00 0.00 0.00 0.00 0.00 0.00 0.00 0.00 0.00 0.00 0.00 0.00 0.00 0.00 0.00 0.00 0.00 0.00 0.00 0.00 0.00 0.00 0.00 0.00 0.00 0.00 0.00 0.00 0.00 0.00 0.00 0.00 0.00 0.00 0.00 0.00 0.00 0.00 0.00 0.00 0.00
MSLP
1016.76 1016.45 1016.14 1015.86 1015.51 1015.15 1014.88 1014.69 1014.43 1014.16 1013.94 1013.77 1013.59 1013.42 1013.17 1012.86 1012.34 1012.08 1010.86 1008.22 1008.20 1008.06 1008.25 1008.14 1008.14 1008.10 1008.21 1007.91 1007.79 1009.42 1010.56 1010.50 1009.26 1008.42 1007.84 1007.93 1007.85 1008.43 1008.35 1008.10 1008.50 1008.78 1009.41 1009.68 1010.89
1016.52 1016.15 1015.88 1015.60 1015.34 1015.04 1014.81 1014.66 1014.36 1014.11 1013.92 1013.65 1013.46 1013.30 1013.09 1012.73 1012.09 1010.41 1007.84 1007.49 1007.24 1007.20 1007.99 1007.70 1007.66 1007.73 1007.93 1007.04 1007.16 1009.02 1010.62 1010.72 1009.02 1007.94 1007.93 1008.26 1008.30 1008.44 1008.72 1008.23 1008.12 1009.06 1009.76 1010.02 1010.93
1016.34 1016.02 1015.71 1015.42 1015.17 1014.94 1014.71 1014.48 1014.23 1013.98 1013.82 1013.61 1013.40 1013.10 1012.90 1012.65 1011.52 1007.65 1005.59 1006.72 1007.08 1007.21 1007.38 1007.06 1006.75 1006.88 1007.13 1006.49 1006.73 1008.14 1009.38 1009.03 1008.58 1008.08 1007.94 1008.37 1008.73 1008.61 1008.90 1009.10 1008.41 1008.73 1009.48 1010.02 1011.00
1016.21 1015.87 1015.55 1015.22 1014.99 1014.73 1014.45 1014.24 1014.04 1013.88 1013.62 1013.44 1013.26 1012.97 1012.71 1012.38 1009.68 1006.28 1005.35 1006.25 1006.89 1007.16 1007.34 1006.94 1006.45 1006.38 1006.41 1006.04 1005.56 1007.09 1007.51 1008.58 1007.73 1007.66 1007.85 1008.55 1009.21 1009.70 1009.69 1010.36 1009.45 1008.90 1009.43 1009.78 1011.11
1016.12 1015.72 1015.30 1015.00 1014.71 1014.44 1014.17 1013.95 1013.80 1013.65 1013.50 1013.21 1013.10 1012.86 1012.49 1011.20 1007.79 1006.02 1006.09 1006.61 1006.96 1007.22 1007.04 1006.79 1006.31 1005.72 1005.58 1004.98 1004.75 1005.18 1005.86 1007.76 1007.22 1007.64 1008.74 1009.05 1009.71 1010.15 1010.18 1010.02 1009.43 1009.38 1009.52 1009.96 1010.43
1015.80 1015.46 1015.12 1014.77 1014.37 1014.06 1013.80 1013.56 1013.47 1013.31 1013.21 1013.02 1012.94 1012.88 1012.26 1009.09 1005.10 1005.60 1006.06 1006.55 1006.62 1006.88 1006.66 1006.36 1005.45 1004.82 1004.63 1004.49 1004.38 1004.22 1005.64 1006.97 1006.92 1007.38 1008.66 1009.35 1010.39 1010.59 1010.78 1010.11 1009.63 1009.58 1009.69 1009.88 1010.37
1015.42 1015.10 1014.79 1014.44 1014.08 1013.75 1013.44 1013.22 1013.08 1012.96 1012.78 1012.73 1012.67 1012.54 1010.90 1007.30 1004.95 1005.24 1005.68 1006.08 1006.15 1006.25 1006.22 1005.42 1004.88 1004.64 1004.36 1004.34 1003.38 1004.31 1005.11 1006.78 1006.60 1007.25 1008.46 1009.52 1010.82 1010.88 1010.88 1010.50 1010.40 1010.26 1009.89 1009.89 1010.13
1015.07 1014.69 1014.32 1013.98 1013.66 1013.42 1013.07 1012.82 1012.70 1012.51 1012.38 1012.43 1012.46 1012.02 1009.14 1004.73 1004.52 1005.00 1005.24 1005.69 1005.75 1005.78 1005.52 1004.66 1004.15 1004.47 1004.48 1004.10 1003.63 1003.97 1004.74 1007.02 1007.28 1007.37 1008.53 1008.86 1010.75 1011.13 1011.25 1011.86 1011.35 1011.09 1010.50 1010.04 1010.12
1014.68 1014.32 1013.96 1013.59 1013.37 1013.06 1012.73 1012.35 1012.17 1011.69 1011.61 1012.12 1012.16 1011.17 1007.32 1004.22 1004.46 1004.12 1004.49 1005.00 1005.26 1005.38 1005.21 1004.60 1004.29 1004.75 1004.79 1004.94 1004.66 1003.88 1004.49 1005.61 1006.70 1007.18 1007.82 1009.02 1010.85 1011.20 1011.52 1012.35 1012.58 1011.40 1010.75 1010.21 1010.27
1014.29 1013.88 1013.58 1013.36 1013.05 1012.82 1012.26 1011.88 1011.66 1011.91 1011.77 1011.53 1010.55 1010.01 1006.38 1004.17 1003.84 1003.80 1003.85 1004.15 1004.80 1005.03 1004.94 1004.56 1004.82 1005.40 1005.46 1005.53 1004.96 1004.15 1004.36 1005.30 1005.68 1006.82 1007.97 1009.03 1010.06 1010.88 1011.49 1012.34 1012.45 1011.33 1010.94 1010.60 1010.50
1013.93 1013.63 1013.40 1013.08 1012.86 1012.66 1012.09 1011.39 1011.72 1011.10 1010.08 1008.34 1007.11 1005.92 1004.26 1003.49 1003.33 1003.56 1003.58 1003.71 1004.31 1004.84 1005.16 1005.04 1005.66 1005.70 1005.35 1004.88 1004.21 1003.88 1004.04 1005.01 1005.79 1007.33 1008.55 1009.85 1010.81 1011.37 1011.68 1012.22 1012.16 1011.37 1011.00 1010.80 1010.84
1013.74 1013.29 1013.06 1012.83 1012.75 1012.67 1012.74 1010.75 1008.14 1006.52 1006.78 1006.21 1005.47 1004.52 1003.47 1002.98 1003.42 1003.52 1003.61 1004.16 1004.58 1004.94 1005.26 1005.62 1005.47 1005.04 1004.68 1004.12 1003.68 1003.62 1004.52 1006.62 1007.41 1008.64 1009.61 1010.75 1011.94 1012.39 1012.38 1012.42 1012.39 1012.00 1010.82 1010.80 1010.97
1013.61 1013.18 1012.78 1012.47 1012.36 1012.56 1011.02 1008.59 1006.43 1005.75 1005.89 1004.41 1004.13 1003.00 1002.04 1002.80 1003.17 1003.42 1003.75 1004.04 1004.62 1004.98 1005.13 1005.15 1004.20 1003.97 1003.83 1003.28 1003.12 1003.09 1003.87 1005.41 1007.99 1009.75 1011.00 1011.75 1012.77 1013.12 1013.12 1013.28 1013.40 1012.58 1011.86 1010.57 1010.89
1013.33 1012.90 1012.50 1012.39 1012.22 1010.16 1008.78 1006.60 1006.03 1005.34 1005.48 1003.34 1003.09 1002.30 1002.08 1002.47 1002.64 1002.71 1003.48 1004.02 1004.14 1004.57 1004.75 1004.40 1003.29 1003.27 1002.71 1002.45 1002.26 1002.52 1002.82 1005.29 1007.73 1009.13 1011.25 1011.65 1012.70 1013.26 1013.22 1012.98 1013.61 1013.26 1012.04 1011.15 1010.98
1013.09 1012.72 1012.45 1012.27 1011.78 1009.59 1006.74 1005.72 1005.48 1005.56 1004.78 1002.80 1001.90 1001.38 1001.61 1002.34 1001.89 1002.19 1002.96 1003.60 1003.80 1003.76 1004.10 1003.62 1002.66 1002.28 1001.87 1001.44 1001.33 1001.78 1002.90 1004.70 1006.58 1008.31 1009.18 1010.60 1011.50 1012.11 1013.00 1013.48 1013.64 1013.32 1012.71 1012.26 1011.14
1013.02 1012.71 1012.31 1011.88 1011.50 1008.29 1006.52 1006.04 1005.52 1005.96 1003.88 1002.05 1001.67 1001.84 1002.02 1002.33 1002.33 1002.48 1002.94 1003.48 1003.50 1003.80 1003.40 1002.85 1001.92 1001.36 1000.97 1000.79 1000.66 1001.19 1002.21 1004.93 1006.59 1008.47 1010.46 1009.15 1009.84 1012.32 1012.54 1012.79 1012.93 1013.05 1013.38 1012.74 1011.72
1012.37 1012.31 1012.54 1010.72 1008.95 1006.38 1005.85 1005.92 1006.43 1005.99 1004.47 1002.86 1002.32 1002.09 1002.31 1002.52 1002.41 1002.73 1003.33 1003.82 1004.03 1004.03 1003.53 1002.64 1001.80 1000.95 1000.61 1000.50 1000.52 1001.17 1002.43 1004.30 1006.81 1009.43 1008.97 1007.59 1009.48 1010.52 1012.56 1013.31 1013.39 1014.99 1014.35 1013.20 1011.60
1011.36 1011.34 1009.84 1008.98 1007.46 1006.68 1006.46 1006.60 1007.18 1006.64 1005.59 1003.90 1002.74 1002.33 1002.66 1002.72 1002.69 1002.92 1003.42 1004.02 1003.98 1003.98 1003.93 1003.12 1002.20 1001.03 1000.32 1000.49 1000.97 1001.53 1002.33 1003.80 1005.85 1006.46 1006.49 1006.84 1009.48 1011.51 1012.84 1014.27 1014.44 1013.98 1013.12 1013.27 1012.44
1010.82 1009.13 1008.47 1006.62 1006.90 1007.00 1007.32 1008.11 1008.28 1006.91 1005.48 1004.60 1003.22 1002.61 1003.02 1003.31 1003.60 1003.71 1003.89 1004.14 1003.86 1003.73 1004.24 1003.24 1001.98 1000.91 1000.21 1000.43 1001.06 1001.50 1002.02 1002.47 1004.70 1005.33 1006.31 1008.81 1011.11 1012.05 1012.74 1013.95 1014.51 1014.82 1013.35 1014.15 1014.12
1011.29 1009.20 1006.61 1005.07 1005.48 1006.38 1006.85 1007.64 1007.79 1006.70 1005.47 1004.52 1004.48 1004.00 1003.95 1004.60 1004.88 1005.31 1005.62 1004.36 1004.06 1003.79 1003.58 1003.66 1003.37 1001.65 1000.49 1000.54 1001.00 1001.73 1002.66 1003.08 1004.02 1005.53 1007.33 1009.12 1011.24 1012.18 1013.06 1013.84 1014.55 1014.75 1015.09 1014.72 1015.05
1010.78 1008.28 1004.70 1003.90 1004.45 1005.78 1006.47 1006.70 1006.24 1005.27 1004.70 1004.67 1005.06 1005.32 1005.56 1005.53 1006.44 1007.70 1008.49 1005.52 1005.03 1004.74 1004.72 1004.38 1004.77 1003.22 1002.18 1001.72 1001.78 1002.41 1002.85 1003.78 1004.46 1005.62 1007.08 1009.38 1011.92 1011.99 1013.32 1014.32 1015.08 1015.60 1016.00 1016.07 1016.02
1010.04 1007.68 1004.04 1003.61 1004.69 1005.23 1006.10 1005.69 1005.17 1004.53 1004.41 1004.76 1005.66 1006.16 1006.32 1006.39 1007.17 1009.09 1007.50 1006.81 1005.84 1005.40 1005.85 1005.79 1005.78 1004.53 1003.53 1002.64 1002.40 1002.64 1003.16 1003.77 1005.32 1006.16 1007.22 1009.15 1012.89 1013.57 1014.08 1015.32 1016.02 1016.18 1016.31 1016.16 1016.21
1010.48 1007.18 1004.02 1003.66 1004.41 1004.69 1005.18 1005.17 1005.04 1005.05 1004.64 1004.71 1005.30 1005.73 1006.08 1006.88 1007.69 1007.55 1007.15 1006.39 1006.09 1005.91 1006.56 1006.92 1007.06 1006.64 1004.86 1003.97 1003.12 1003.26 1003.42 1003.80 1004.51 1005.38 1007.12 1009.09 1013.05 1014.20 1013.96 1014.96 1016.18 1016.24 1016.49 1016.42 1016.40
1011.11 1007.36 1004.70 1004.15 1004.25 1004.55 1004.86 1004.83 1005.14 1005.36 1005.32 1005.30 1005.49 1005.41 1006.20 1006.71 1006.94 1007.01 1006.58 1006.24 1006.28 1006.57 1007.01 1007.49 1008.12 1008.34 1007.70 1006.22 1005.23 1004.27 1003.94 1003.89 1004.63 1006.09 1008.58 1010.53 1012.98 1014.11 1014.52 1015.06 1015.92 1016.30 1016.67 1016.46 1016.52
1010.60 1007.74 1005.86 1005.65 1005.32 1005.17 1005.26 1005.17 1005.23 1005.38 1005.73 1005.86 1005.80 1006.02 1006.19 1006.84 1007.44 1007.51 1006.82 1006.38 1006.54 1006.73 1006.96 1007.63 1009.32 1009.28 1008.15 1006.25 1005.56 1004.75 1004.31 1003.94 1004.78 1005.93 1007.88 1010.81 1012.16 1013.86 1014.71 1015.06 1015.85 1016.51 1016.60 1016.58 1016.90
1010.50 1008.68 1007.00 1006.36 1006.12 1005.86 1005.72 1005.74 1005.67 1005.92 1006.20 1006.15 1006.34 1006.28 1006.60 1007.00 1007.53 1007.86 1007.74 1006.92 1006.68 1007.09 1007.42 1007.96 1009.37 1009.65 1008.78 1006.81 1005.84 1005.40 1004.77 1003.96 1005.02 1006.21 1008.08 1010.24 1012.58 1013.57 1014.45 1015.00 1015.63 1016.09 1016.27 1016.65 1017.13
1010.21 1008.91 1008.26 1007.14 1006.46 1006.26 1006.02 1006.04 1006.26 1006.64 1006.96 1006.78 1006.94 1007.21 1007.52 1007.96 1007.95 1008.17 1007.86 1007.50 1007.76 1007.56 1008.08 1008.60 1009.55 1010.41 1009.55 1008.09 1007.18 1006.45 1005.49 1005.27 1005.49 1006.11 1007.82 1010.19 1011.47 1013.22 1014.37 1014.84 1015.20 1015.58 1016.16 1016.87 1017.62
Thickness
5703 5705 5708 5710 5712 5715 5718 5720 5722 5725 5728 5731 5734 5738 5742 5747 5754 5759 5765 5794 5799 5805 5807 5809 5809 5808 5807 5803 5808 5791 5755 5747 5771 5779 5785 5801 5795 5804 5801 5802 5803 5805 5797 5803 5801
5699 5702 5703 5705 5707 5710 5712 5715 5718 5720 5723 5727 5730 5734 5738 5745 5752 5762 5793 5799 5806 5810 5803 5801 5797 5802 5792 5802 5804 5777 5750 5748 5785 5800 5793 5796 5798 5799 5797 5801 5801 5797 5801 5806 5803
5694 5696 5699 5701 5702 5704 5706 5709 5713 5716 5719 5722 5725 5730 5735 5741 5749 5777 5807 5802 5803 5807 5807 5810 5812 5805 5791 5803 5800 5786 5762 5779 5787 5798 5803 5795 5792 5800 5793 5785 5800 5795 5795 5801 5799
5688 5691 5693 5696 5698 5700 5702 5704 5708 5712 5715 5719 5722 5726 5731 5737 5749 5791 5806 5802 5802 5804 5802 5802 5805 5795 5788 5787 5810 5787 5797 5787 5805 5804 5806 5791 5792 5779 5786 5769 5798 5808 5805 5804 5794
5685 5687 5690 5692 5694 5697 5699 5701 5704 5707 5711 5715 5718 5722 5728 5735 5759 5793 5796 5796 5798 5797 5794 5793 5793 5798 5786 5801 5811 5805 5808 5786 5809 5805 5792 5796 5782 5777 5781 5793 5807 5807 5805 5800 5799
5682 5683 5684 5686 5690 5693 5696 5699 5701 5704 5707 5711 5714 5717 5722 5730 5795 5792 5792 5792 5792 5791 5792 5797 5801 5812 5802 5802 5802 5818 5804 5773 5806 5805 5794 5784 5777 5781 5782 5796 5801 5802 5800 5801 5801
5682 5682 5682 5684 5685 5688 5693 5696 5699 5702 5704 5707 5711 5715 5724 5744 5789 5789 5791 5788 5793 5792 5788 5805 5812 5804 5809 5800 5824 5815 5799 5791 5805 5803 5790 5789 5765 5769 5784 5791 5791 5794 5799 5801 5804
5681 5682 5682 5683 5685 5686 5689 5693 5696 5700 5703 5704 5707 5712 5722 5783 5788 5784 5786 5783 5791 5796 5797 5811 5816 5804 5804 5814 5813 5803 5797 5750 5783 5799 5791 5791 5750 5772 5780 5770 5765 5783 5791 5799 5802
5680 5680 5681 5682 5683 5685 5688 5691 5695 5700 5704 5702 5703 5709 5728 5783 5770 5784 5787 5776 5783 5789 5796 5807 5806 5793 5795 5780 5773 5796 5778 5774 5780 5801 5794 5785 5754 5772 5777 5766 5757 5779 5789 5798 5801
5680 5680 5680 5680 5682 5683 5687 5691 5693 5694 5697 5702 5711 5704 5737 5750 5769 5779 5787 5786 5775 5778 5778 5783 5779 5763 5765 5759 5743 5774 5781 5778 5781 5794 5793 5775 5769 5775 5775 5764 5756 5780 5786 5793 5798
5679 5678 5677 5679 5679 5680 5685 5690 5686 5689 5699 5710 5722 5731 5751 5766 5777 5771 5780 5776 5773 5765 5745 5769 5743 5733 5756 5778 5793 5798 5799 5787 5794 5794 5777 5765 5760 5767 5772 5766 5761 5778 5781 5788 5793
5677 5678 5678 5677 5675 5675 5674 5686 5703 5718 5702 5721 5731 5738 5756 5765 5746 5759 5775 5752 5749 5736 5752 5741 5731 5763 5781 5789 5793 5793 5780 5757 5767 5772 5764 5758 5747 5757 5764 5766 5763 5771 5787 5790 5792
5675 5675 5676 5677 5676 5672 5683 5699 5722 5724 5695 5720 5729 5738 5750 5756 5740 5743 5759 5753 5741 5734 5740 5731 5758 5779 5779 5782 5783 5788 5777 5768 5758 5752 5748 5745 5735 5739 5754 5755 5752 5765 5777 5796 5793
5674 5674 5675 5673 5675 5691 5693 5715 5721 5723 5669 5708 5715 5732 5742 5748 5734 5762 5762 5750 5745 5732 5741 5742 5772 5768 5774 5776 5789 5767 5807 5774 5753 5746 5717 5750 5708 5730 5743 5751 5746 5753 5771 5785 5793
5671 5672 5672 5672 5673 5686 5708 5722 5723 5708 5642 5712 5722 5754 5748 5732 5744 5746 5766 5749 5732 5741 5743 5740 5758 5762 5765 5783 5800 5788 5803 5781 5766 5749 5753 5747 5729 5740 5746 5740 5745 5754 5762 5774 5791
5667 5668 5670 5674 5671 5695 5710 5715 5710 5662 5659 5708 5727 5718 5721 5726 5731 5742 5743 5751 5753 5739 5748 5754 5780 5778 5778 5797 5807 5816 5803 5775 5760 5735 5707 5754 5754 5726 5739 5748 5749 5755 5760 5771 5786
5670 5669 5665 5677 5683 5709 5713 5698 5654 5646 5695 5703 5706 5718 5716 5713 5722 5723 5721 5714 5707 5705 5712 5744 5756 5778 5790 5777 5796 5797 5776 5728 5724 5696 5708 5778 5751 5747 5743 5740 5733 5729 5747 5767 5788
5674 5674 5687 5691 5700 5704 5699 5672 5641 5662 5669 5706 5717 5722 5704 5716 5718 5721 5715 5704 5725 5724 5714 5712 5712 5759 5783 5773 5768 5773 5765 5729 5712 5725 5749 5782 5723 5727 5743 5736 5737 5730 5753 5763 5777
5674 5690 5693 5707 5702 5698 5678 5634 5635 5661 5685 5686 5707 5707 5701 5712 5712 5710 5708 5706 5725 5730 5704 5711 5724 5776 5783 5788 5781 5769 5753 5787 5747 5764 5753 5730 5728 5742 5747 5740 5739 5736 5741 5748 5754
5667 5682 5697 5718 5711 5695 5668 5646 5650 5675 5690 5696 5675 5694 5689 5688 5690 5684 5679 5713 5717 5728 5736 5723 5701 5754 5774 5786 5782 5767 5772 5741 5746 5729 5726 5718 5722 5719 5729 5735 5735 5734 5733 5734 5741
5669 5676 5714 5727 5714 5683 5653 5659 5673 5693 5698 5684 5677 5674 5672 5676 5673 5643 5642 5693 5707 5711 5719 5721 5705 5720 5747 5747 5746 5751 5743 5755 5754 5748 5724 5707 5695 5737 5727 5727 5725 5726 5728 5732 5732
5670 5664 5720 5725 5677 5678 5662 5679 5686 5694 5701 5689 5678 5669 5666 5671 5661 5625 5660 5669 5702 5707 5693 5711 5706 5697 5719 5756 5769 5761 5752 5755 5719 5727 5741 5720 5687 5712 5722 5714 5714 5718 5723 5730 5736
5658 5678 5717 5716 5667 5675 5681 5684 5687 5681 5687 5685 5678 5675 5675 5666 5655 5663 5667 5692 5698 5700 5691 5697 5673 5658 5694 5725 5750 5741 5750 5756 5754 5754 5737 5715 5683 5703 5714 5711 5707 5710 5715 5721 5729
5653 5662 5692 5699 5698 5687 5682 5682 5673 5686 5681 5685 5681 5688 5678 5670 5672 5664 5677 5692 5698 5696 5690 5690 5675 5663 5645 5676 5706 5712 5736 5753 5748 5722 5700 5689 5683 5688 5698 5701 5701 5705 5709 5716 5719
5654 5664 5683 5660 5673 5683 5681 5680 5674 5669 5679 5681 5676 5677 5672 5661 5652 5651 5673 5681 5690 5688 5695 5681 5650 5659 5674 5706 5711 5716 5725 5744 5737 5730 5704 5684 5689 5688 5694 5699 5699 5698 5702 5706 5710
5646 5657 5671 5671 5681 5675 5671 5668 5670 5671 5667 5665 5664 5675 5672 5653 5650 5643 5658 5674 5676 5681 5683 5679 5648 5658 5658 5696 5708 5703 5719 5740 5737 5717 5704 5696 5678 5694 5695 5698 5696 5697 5702 5702 5702
5656 5665 5660 5666 5672 5665 5663 5668 5667 5669 5668 5672 5666 5659 5652 5653 5663 5663 5666 5668 5666 5668 5662 5663 5651 5642 5644 5673 5678 5673 5704 5709 5718 5720 5712 5686 5689 5690 5685 5689 5694 5697 5700 5696 5694